Theta_e
327 334 335 334 333 332 332 331 329 329 329 328 327 327 328 330 331 332 330 331 331 330 330 329 329 315 314 321 329 334 339 341 340 340 337 333 333 331 332 332 332 333 333
328 335 334 333 332 331 330 332 331 330 328 328 328 329 328 328 328 329 331 330 330 328 327 326 327 318 315 317 326 331 336 340 339 338 335 333 333 331 331 332 333 334 334
330 332 334 334 333 331 331 330 331 330 328 328 327 328 326 327 327 329 329 331 330 327 328 325 325 319 316 316 323 330 333 338 340 338 336 333 332 331 331 331 332 331 329
331 330 333 333 332 334 331 329 329 329 329 327 328 328 326 327 327 326 328 329 330 330 329 328 318 315 318 316 318 328 332 337 339 339 337 333 331 331 329 330 325 329 326
333 330 331 331 332 332 329 329 329 328 328 327 326 328 327 327 328 328 328 325 326 330 329 328 329 316 316 316 317 326 331 336 338 337 336 332 332 330 331 327 329 326 309
335 334 333 331 332 332 330 329 329 328 327 328 328 328 327 326 328 329 328 326 328 324 328 330 332 329 319 317 319 326 333 335 338 337 335 332 331 330 330 327 326 309 309
334 334 330 332 332 330 329 329 329 327 326 328 327 327 326 326 326 329 326 328 327 327 327 329 331 332 330 318 318 326 333 336 336 337 332 332 331 329 326 328 310 308 314
332 333 333 331 331 330 329 328 328 327 326 325 324 327 327 325 324 328 326 326 328 328 329 328 330 330 333 320 319 324 331 336 336 336 333 332 328 328 325 317 309 314 311
331 330 331 329 329 328 327 327 327 326 325 323 324 325 326 327 324 325 328 328 328 328 331 332 330 332 332 332 322 324 329 334 337 336 333 331 328 327 318 308 312 309 311
334 332 330 329 328 328 327 326 326 325 325 324 325 324 324 326 328 329 324 328 330 328 325 327 329 329 332 334 330 324 332 335 336 334 331 328 328 321 309 314 314 319 314
331 329 328 327 326 326 326 325 324 325 325 325 325 326 323 325 327 328 327 327 327 326 326 327 327 327 327 328 326 333 334 328 330 332 329 328 325 312 317 321 323 321 310
329 327 328 328 328 326 325 325 325 325 324 324 325 326 325 325 326 327 324 328 328 329 330 331 329 329 331 332 333 337 334 322 326 328 329 327 324 323 323 323 321 311 308
329 326 327 329 327 327 326 326 326 327 326 326 326 326 325 326 327 328 327 330 330 330 330 332 332 333 333 335 333 332 330 330 330 329 329 325 324 323 322 318 311 309 308
328 328 328 325 327 329 329 329 327 327 326 326 326 326 326 327 327 327 327 329 330 330 329 331 332 332 334 334 334 332 331 331 328 328 323 324 323 322 314 310 311 309 313
327 327 327 328 330 330 329 328 326 326 326 326 327 327 328 328 329 329 327 328 328 330 329 328 328 329 330 332 333 332 332 329 328 324 323 323 324 317 313 312 311 314 311
331 328 327 327 327 327 327 327 326 326 325 325 326 324 327 327 328 329 329 329 329 329 327 330 328 332 328 330 331 331 329 325 324 323 323 324 321 315 312 312 316 311 310
328 329 329 328 329 328 327 326 329 326 322 323 323 325 326 328 325 326 330 330 329 328 326 327 325 330 329 330 326 327 325 323 322 324 323 322 315 311 314 314 312 312 313
328 328 329 329 329 328 325 331 326 326 322 324 325 325 325 328 326 328 329 329 326 326 325 325 325 325 324 323 324 324 323 323 323 322 321 318 314 314 313 312 313 313 312
328 329 328 328 329 324 332 331 330 329 328 327 326 326 326 327 327 327 326 327 327 326 324 324 324 324 323 323 323 323 324 324 321 319 317 316 313 313 312 312 312 312 312
328 329 329 329 329 329 331 331 330 329 330 329 327 327 327 327 327 326 326 327 326 324 324 324 324 324 324 324 323 323 322 320 320 319 316 313 314 313 312 311 311 314 319
329 329 328 329 329 330 328 331 330 331 330 329 327 327 327 327 328 328 328 326 324 324 324 324 324 323 323 322 322 321 321 320 318 315 315 314 313 312 311 311 316 319 315
328 328 328 329 330 327 327 330 331 331 329 328 327 327 329 328 328 328 327 325 324 324 324 324 323 322 322 322 322 322 321 316 317 316 313 312 312 311 313 319 319 314 309
329 328 329 329 329 324 325 330 330 331 330 327 328 328 328 327 328 328 326 325 324 324 325 324 324 323 323 323 323 321 317 314 313 313 312 314 315 316 319 319 314 312 302
328 328 329 329 326 323 324 328 330 330 330 328 329 328 328 328 328 327 326 325 324 324 325 324 324 324 325 324 323 318 317 317 317 317 315 316 317 319 319 315 314 308 297
330 329 329 329 327 323 324 329 330 329 328 329 329 328 328 328 327 327 326 325 325 325 325 325 324 323 323 323 317 322 322 321 320 319 319 320 319 317 313 313 312 304 297
330 329 330 330 330 325 327 330 331 330 328 329 329 329 327 327 327 327 327 326 326 326 326 325 325 324 322 316 320 324 323 321 319 320 319 319 318 315 314 314 312 307 297
Wind_Speed
15 11 13 14 15 14 12 17 18 20 19 20 19 19 21 18 16 15 20 20 21 19 20 19 18 19 20 20 18 18 19 18 20 22 21 21 22 19 19 18 18 17 17
16 19 19 17 20 20 20 18 19 19 18 16 14 15 17 19 19 20 14 16 19 17 19 22 19 19 20 21 18 19 20 20 19 23 24 24 21 21 21 19 18 19 15
16 18 17 16 21 20 20 22 22 19 16 16 13 14 15 18 17 22 22 11 15 19 16 16 18 18 18 20 20 19 21 22 21 27 27 23 23 23 23 20 19 15 13
19 16 16 17 14 23 22 22 22 20 17 16 14 13 15 16 17 18 22 20 15 12 9 5 13 17 17 20 20 20 21 23 23 27 26 25 24 23 24 24 19 15 12
16 14 16 17 20 23 20 20 20 17 17 15 13 12 16 13 15 18 20 17 23 15 13 13 10 13 15 19 21 20 21 24 23 26 29 27 25 25 25 23 18 15 15
14 14 19 20 21 23 20 18 17 16 17 14 13 13 16 16 14 11 15 16 20 19 15 14 15 11 15 19 21 20 21 25 25 27 29 26 26 26 24 20 16 17 15
15 18 20 21 23 22 19 18 17 17 18 14 14 15 16 15 19 18 18 17 18 15 14 17 12 11 12 20 21 20 21 26 25 27 34 26 29 25 25 18 18 19 18
14 15 18 21 20 19 19 18 17 16 17 17 19 14 7 15 22 23 21 19 16 17 19 18 16 13 13 17 21 21 20 27 27 30 31 31 28 27 25 19 22 20 17
15 14 19 18 16 16 18 15 15 16 17 17 18 16 7 9 16 23 22 21 19 18 16 20 23 20 15 23 23 22 22 27 29 32 34 30 30 28 23 24 22 19 15
8 11 16 17 13 11 11 11 12 15 16 18 17 20 18 7 9 8 22 18 15 21 20 20 19 21 22 18 18 22 24 33 36 30 37 33 33 27 30 27 23 17 13
17 14 13 8 8 8 7 8 10 11 13 15 17 14 20 16 13 5 13 23 20 15 16 18 18 18 20 18 19 21 28 17 24 28 30 37 34 29 29 23 18 12 9
12 10 6 6 6 5 5 6 6 7 9 10 12 14 15 13 8 5 17 15 17 14 10 13 11 16 20 20 19 28 26 35 31 32 39 37 30 29 27 21 16 8 9
6 3 4 8 7 4 3 2 2 3 5 6 8 11 12 11 8 12 17 17 13 12 7 8 11 12 17 22 24 25 27 35 36 31 33 33 32 28 25 18 13 11 11
3 7 5 4 2 3 4 5 4 4 4 4 4 6 10 7 6 5 13 14 18 12 11 12 11 9 14 19 23 28 37 36 31 39 39 35 30 27 20 16 15 13 12
4 3 2 2 2 1 4 4 5 6 2 2 2 2 4 6 5 6 14 18 25 19 14 10 12 10 13 18 26 37 40 32 41 42 40 36 29 25 20 19 16 13 9
8 2 2 1 1 1 3 3 3 3 2 1 0 2 1 1 2 3 11 17 19 24 14 15 15 21 15 21 40 39 42 46 44 41 35 29 26 23 19 18 15 15 11
6 4 3 3 1 2 1 3 4 5 5 3 3 3 1 3 3 2 15 18 18 19 22 16 12 24 24 35 48 53 48 48 42 33 28 26 26 21 19 16 15 12 9
8 7 3 2 2 6 1 2 4 6 8 1 4 2 3 8 9 9 10 18 21 15 19 31 35 39 44 48 52 49 47 41 33 31 29 22 21 19 16 13 12 10 8
7 5 2 2 4 4 2 1 2 4 4 5 4 2 6 9 8 9 11 16 16 19 34 44 38 43 51 50 50 47 38 35 28 25 23 22 20 17 15 12 10 7 6
6 6 4 3 2 3 5 8 7 2 1 3 3 3 11 8 8 11 13 15 26 36 42 45 43 43 43 42 42 40 33 30 28 25 24 21 20 16 13 10 9 7 5
8 8 3 6 3 5 5 7 5 6 6 8 9 10 13 11 9 15 16 26 41 46 46 44 42 40 39 38 35 35 35 32 26 24 24 21 18 16 14 11 8 7 5
8 6 6 8 6 2 7 8 8 9 11 10 12 16 19 19 12 17 22 36 45 46 42 43 36 37 37 37 36 35 34 32 27 18 21 19 15 15 12 10 10 7 4
10 9 8 8 6 6 7 9 8 9 12 15 18 18 19 17 19 20 34 33 39 40 35 37 37 36 36 33 33 32 31 27 25 24 20 19 15 12 12 13 10 6 4
12 11 9 7 8 5 7 7 9 10 13 18 16 15 16 17 23 26 32 32 35 34 31 35 33 30 30 31 29 25 24 21 22 20 18 18 15 12 13 12 9 6 4
11 11 10 9 6 6 7 9 11 10 14 17 15 15 15 21 23 26 34 33 29 30 28 29 28 31 25 24 29 25 22 22 24 20 14 11 14 13 13 10 8 6 5
8 8 11 10 6 7 8 12 13 14 18 17 18 16 15 20 21 20 26 33 28 29 28 27 31 23 20 29 29 18 18 17 23 18 16 9 10 12 10 10 9 8 7
Wind_Direction
241 241 249 246 237 248 272 278 266 247 259 260 263 254 249 239 254 244 231 237 231 238 250 260 259 237 220 215 213 213 213 208 204 210 197 195 197 185 185 183 180 186 170
232 228 243 255 264 265 253 253 255 262 255 260 253 244 251 243 238 245 238 222 229 242 254 259 253 234 218 215 213 210 213 210 205 202 192 192 193 188 188 184 181 175 178
241 235 237 240 265 274 260 251 252 255 263 252 257 258 267 248 234 235 221 243 254 256 259 255 242 229 218 216 213 210 211 210 203 197 197 195 191 192 185 177 173 184 182
254 241 248 261 265 264 273 256 255 258 257 246 242 252 260 255 233 229 223 220 232 241 258 256 234 229 221 216 212 211 211 210 202 202 200 196 195 191 186 181 180 189 184
264 267 265 259 256 266 269 255 256 253 248 245 236 251 249 243 231 221 237 233 221 233 253 257 246 221 221 216 210 211 212 207 199 204 199 194 195 191 187 175 182 182 158
258 256 263 281 272 273 270 250 252 253 242 238 239 248 256 252 226 238 220 213 212 232 216 234 238 224 215 214 209 210 211 203 200 199 197 193 191 187 179 180 177 161 147
243 250 272 268 275 274 270 254 253 250 232 230 240 247 251 248 217 212 225 211 220 226 211 230 223 213 223 207 208 209 208 199 195 200 193 191 188 185 185 179 169 155 150
258 268 266 276 274 276 265 259 253 247 238 236 241 244 250 243 223 214 208 209 222 221 217 217 227 232 225 211 205 208 205 197 197 198 197 189 188 187 182 173 163 156 156
258 264 274 283 278 272 268 262 253 244 243 244 239 228 207 221 223 217 208 213 218 222 205 219 217 214 232 220 210 210 204 197 193 199 191 185 182 173 168 163 161 156 151
246 280 287 286 283 277 266 257 250 245 248 248 245 235 225 208 195 208 216 212 212 220 228 230 205 207 219 216 219 216 198 198 192 196 181 177 172 166 161 157 157 149 126
265 275 275 282 279 282 270 263 255 247 245 246 241 239 226 235 236 209 196 207 216 225 218 215 218 214 224 217 210 190 179 136 178 187 189 172 163 160 164 159 156 147 153
283 272 245 312 295 280 282 277 258 248 238 233 230 223 229 232 234 226 207 202 201 202 211 212 198 205 209 191 192 187 183 179 187 191 182 176 165 166 155 158 143 159 176
298 225 175 222 265 267 280 280 212 251 232 245 233 222 223 224 225 180 200 180 168 168 168 169 196 195 194 181 187 187 172 172 175 177 179 166 150 154 161 143 150 180 169
213 157 213 235 234 243 225 253 254 254 258 258 257 239 234 225 210 199 187 188 160 154 162 144 172 168 176 179 180 181 173 174 173 173 159 149 149 152 137 157 182 177 170
110 155 182 172 211 266 242 232 241 236 213 247 314 246 197 224 227 218 212 205 180 151 141 162 158 169 158 170 185 179 175 183 172 156 149 150 155 145 157 161 162 159 191
150 257 121 80 183 250 249 217 205 187 172 148 153 87 117 35 147 171 197 178 177 173 136 165 163 162 179 168 178 184 173 149 147 148 150 150 149 153 161 172 177 170 178
154 138 48 13 22 349 315 173 183 188 271 287 284 348 47 160 111 260 168 167 171 168 142 145 160 171 178 171 158 153 144 144 147 151 146 146 147 158 178 178 164 161 178
139 129 181 290 8 316 271 218 230 217 237 255 197 181 146 149 142 134 137 146 140 148 143 135 134 135 137 144 138 139 144 142 141 142 144 148 151 158 157 156 173 179 180
141 154 163 210 293 313 55 28 184 202 243 242 273 91 145 151 154 148 143 153 152 153 142 135 120 116 130 140 138 138 140 143 144 144 149 150 157 165 168 169 177 181 200
153 143 189 293 33 46 65 69 68 88 201 133 131 114 142 135 157 158 156 160 163 146 135 130 131 129 129 136 139 140 140 145 141 152 151 159 166 169 172 183 188 199 211
162 190 180 117 65 30 89 89 63 75 112 121 112 119 136 137 135 148 142 143 142 141 143 140 137 143 140 137 142 145 144 149 150 153 157 161 168 177 182 187 192 177 174
158 179 143 133 162 87 86 87 85 88 122 112 121 115 117 121 128 152 154 150 151 150 149 148 139 138 141 148 148 150 149 145 141 156 159 156 179 182 183 183 177 178 201
164 164 165 165 175 122 103 108 96 107 125 112 117 123 123 123 136 148 152 151 155 158 153 152 151 151 151 149 149 149 148 153 150 152 171 164 179 186 186 184 185 196 218
164 181 178 184 182 150 116 123 99 107 125 125 119 124 130 131 144 153 153 149 154 156 154 153 150 145 142 145 147 140 143 148 149 161 182 170 182 201 190 190 202 214 217
186 183 188 173 197 172 140 136 112 117 129 132 124 121 126 136 144 157 158 158 157 161 160 158 141 136 134 142 143 145 160 163 162 174 184 214 190 188 190 202 217 224 228
156 164 183 170 193 161 142 149 134 132 133 137 138 134 138 137 146 143 157 161 163 168 166 160 160 154 146 150 156 158 166 175 177 173 186 203 203 193 186 206 230 238 246